Home   Weather   Kolonia   Past weeks
Flag for Micronesia

Past Weather in Kolonia, Pohnpei, Micronesia — Yesterday and Last 2 Weeks

Now
82 °F

Mostly cloudy.


Feels Like: 89 °F
Forecast: 84 / 77 °F
Wind: No wind

Location: Pohnpei

Current Time: Mar 21, 2019 at 7:26:07 pm

Latest Report: Mar 21, 2019 at 6:52 pm


Visibility: 15 mi

Pressure: 29.78 "Hg

Humidity: 83%

Dew Point: 76 °F

Location of KoloniaLocation

Past Weather in Kolonia — Graph

°F

Kolonia Temperature Yesterday

Maximum temperature yesterday: 87 °F (at 10:53 am)
Minimum temperature yesterday: 75 °F (at 7:25 am)
Average temperature yesterday: 79 °F

High & Low Weather Summary for the Past Weeks

 TemperatureHumidityPressure
High88 °F (Mar 8, 11:50 am)100% (Mar 20, 7:25 am)29.93 "Hg (Mar 20, 7:25 am)
Low75 °F (Mar 21, 3:52 am)62% (Mar 15, 3:44 pm)29.73 "Hg (Mar 20, 3:53 pm)
Average81 °F83%29.83 "Hg
* Reported Mar 6 5:50 pm — Mar 21 5:52 pm, Kolonia. Weather by CustomWeather, © 2019

Note: Actual official high and low records may vary slightly from our data, if they occured in-between our weather recording intervals... More about our weather records

Advertising

Kolonia Weather History for the Previous 24 Hours

Scroll right to see more
 ConditionsComfort  
Time TempWeatherWind HumidityBarometerVisibility
5:52 pm
Thu, Mar 21
83 °FMore clouds than sun.2 mph80%29.78 "Hg15 mi
3:52 pm87 °FMore clouds than sun.3 mph73%29.75 "Hg15 mi
2:52 pm86 °FMore clouds than sun.3 mph77%29.75 "Hg15 mi
1:52 pm85 °FMore clouds than sun.5 mph80%29.77 "Hg15 mi
12:52 pm86 °FMore clouds than sun.6 mph77%29.79 "Hg15 mi
11:52 am85 °FMore clouds than sun.3 mph80%29.81 "Hg15 mi
10:50 am84 °FCloudy.5 mph80%29.85 "Hg15 mi
9:50 am82 °FCloudy.3 mph84%29.87 "Hg15 mi
8:50 am80 °FMore clouds than sun.3 mph94%29.86 "Hg15 mi
7:54 am76 °FCloudy.5 mph96%29.84 "Hg15 mi
6:54 am75 °FCloudy.2 mph96%29.82 "Hg15 mi
6:28 am75 °FOvercast.3 mph94%29.79 "Hg15 mi
5:54 am75 °FMostly cloudy.3 mph96%29.78 "Hg15 mi
4:54 am75 °FMostly cloudy.No wind97%29.78 "Hg15 mi
3:52 am75 °FSprinkles. Mostly cloudy.2 mph97%29.79 "Hg12 mi
3:13 am77 °FSprinkles. Mostly cloudy.3 mph100%29.80 "Hg12 mi
2:51 am75 °FOvercast.3 mph98%29.80 "Hg15 mi
1:53 am75 °FOvercast.2 mph98%29.81 "Hg15 mi
12:51 am75 °FMostly cloudy.2 mph97%29.85 "Hg15 mi
11:56 pm
Wed, Mar 20
75 °FMostly cloudy.3 mph98%29.86 "Hg15 mi
10:52 pm76 °FMostly cloudy.No wind97%29.87 "Hg15 mi
9:52 pm76 °FOvercast.No wind96%29.86 "Hg15 mi
8:53 pm76 °FOvercast.No wind96%29.83 "Hg15 mi
7:51 pm76 °FLight rain. Mostly cloudy.No wind96%29.82 "Hg15 mi
Weather by CustomWeather, © 2019

See weather overview